OMA9926 LEJR-LIML

Flight info

Callsign OMA9926
Flight time 2h 10m
Altitude 38000
Route MAR2W MAR N871 ALCOL N747 YES M985 BCN N870 DIBER UN870 SOSUR DCT NOSTA DCT ITCAP ITCA1S
Aircraft A19N/M-SDE3FGHIRWY/LB1

Departure

Time 2026-04-28 15:07
Airport Jerez Airport (LEJR)

Arrival

Time 2026-04-28 17:17
Airport Milano Linate Airport (LIML)
Time Latitude Longitude Altitude Speed Heading
2026-04-28 14:46 36.74727 -6.06241 108 ft 0 kts 359°
2026-04-28 15:02 36.74746 -6.06234 108 ft 5 kts 18°
2026-04-28 15:02 36.74771 -6.06202 108 ft 6 kts 99°
2026-04-28 15:02 36.74757 -6.06154 108 ft 5 kts 111°
2026-04-28 15:03 36.74745 -6.06112 108 ft 5 kts 96°
2026-04-28 15:03 36.74773 -6.06076 108 ft 10 kts 20°
2026-04-28 15:03 36.74866 -6.06031 108 ft 18 kts 22°
2026-04-28 15:03 36.74989 -6.05970 108 ft 20 kts 22°
2026-04-28 15:04 36.75118 -6.05906 108 ft 19 kts 22°
2026-04-28 15:04 36.75241 -6.05847 108 ft 19 kts 21°
2026-04-28 15:04 36.75362 -6.05788 108 ft 18 kts 21°
2026-04-28 15:04 36.75457 -6.05741 108 ft 7 kts 28°
2026-04-28 15:05 36.75463 -6.05699 108 ft 5 kts 109°
2026-04-28 15:05 36.75449 -6.05653 108 ft 7 kts 110°
2026-04-28 15:05 36.75428 -6.05580 108 ft 9 kts 110°
2026-04-28 15:05 36.75402 -6.05553 108 ft 5 kts 189°
2026-04-28 15:06 36.75364 -6.05571 108 ft 13 kts 201°
2026-04-28 15:06 36.75098 -6.05700 108 ft 68 kts 200°
2026-04-28 15:06 36.74503 -6.05990 108 ft 114 kts 200°
2026-04-28 15:06 36.73662 -6.06407 229 ft 136 kts 198°
2026-04-28 15:07 36.72759 -6.06721 675 ft 135 kts 190°
2026-04-28 15:07 36.71856 -6.07017 1162 ft 136 kts 190°
2026-04-28 15:07 36.70909 -6.07355 1509 ft 142 kts 186°
2026-04-28 15:07 36.69951 -6.07687 1913 ft 154 kts 184°
2026-04-28 15:08 36.68779 -6.08084 2038 ft 195 kts 186°
2026-04-28 15:08 36.67363 -6.08590 2426 ft 228 kts 188°
2026-04-28 15:08 36.65770 -6.09174 3263 ft 241 kts 189°
2026-04-28 15:08 36.64133 -6.09773 4331 ft 249 kts 192°
2026-04-28 15:09 36.62438 -6.10400 5363 ft 257 kts 194°
2026-04-28 15:09 36.60731 -6.11043 6532 ft 259 kts 195°
2026-04-28 15:09 36.58999 -6.11695 7605 ft 264 kts 195°
2026-04-28 15:09 36.57827 -6.12146 8285 ft 269 kts 198°
2026-04-28 15:10 36.55611 -6.13216 10326 ft 241 kts 199°
2026-04-28 15:10 36.53939 -6.13549 11132 ft 255 kts 169°
2026-04-28 15:10 36.52477 -6.12261 11708 ft 275 kts 122°
2026-04-28 15:10 36.52051 -6.09946 12480 ft 286 kts 92°
2026-04-28 15:11 36.52100 -6.07408 13063 ft 303 kts 83°
2026-04-28 15:11 36.52510 -6.04792 13752 ft 313 kts 80°
2026-04-28 15:11 36.52951 -6.02109 14447 ft 321 kts 79°
2026-04-28 15:11 36.53418 -5.99355 15135 ft 328 kts 79°
2026-04-28 15:12 36.54068 -5.96613 16106 ft 324 kts 65°
2026-04-28 15:12 36.55240 -5.94239 16890 ft 329 kts 57°
2026-04-28 15:12 36.56515 -5.91839 17449 ft 338 kts 58°
2026-04-28 15:12 36.57815 -5.89287 17561 ft 360 kts 58°
2026-04-28 15:13 36.59169 -5.86625 17708 ft 378 kts 58°
2026-04-28 15:13 36.60609 -5.83792 17879 ft 395 kts 58°
2026-04-28 15:13 36.62108 -5.80845 18056 ft 412 kts 58°
2026-04-28 15:13 36.63684 -5.77751 18189 ft 429 kts 58°
2026-04-28 15:14 36.65300 -5.74586 18759 ft 434 kts 58°
2026-04-28 15:14 36.66929 -5.71404 19316 ft 439 kts 58°
2026-04-28 15:14 36.68571 -5.68202 19842 ft 445 kts 58°
2026-04-28 15:14 36.70274 -5.64886 20358 ft 450 kts 58°
2026-04-28 15:15 36.71945 -5.61642 20836 ft 455 kts 58°
2026-04-28 15:15 36.73116 -5.59371 21157 ft 458 kts 58°
2026-04-28 15:15 36.75383 -5.54890 21753 ft 464 kts 59°
2026-04-28 15:15 36.77078 -5.51486 22236 ft 465 kts 59°
2026-04-28 15:16 36.78787 -5.48031 22797 ft 465 kts 59°
2026-04-28 15:16 36.80456 -5.44602 23320 ft 465 kts 60°
2026-04-28 15:16 36.81575 -5.42297 23658 ft 465 kts 59°
2026-04-28 15:16 36.83303 -5.38860 24081 ft 468 kts 58°
2026-04-28 15:17 36.85045 -5.35416 24378 ft 472 kts 58°
2026-04-28 15:17 36.86812 -5.31935 24709 ft 475 kts 58°
2026-04-28 15:17 36.88598 -5.28430 25065 ft 477 kts 58°
2026-04-28 15:17 36.90337 -5.25031 25942 ft 468 kts 58°
2026-04-28 15:18 36.92110 -5.21580 26194 ft 473 kts 58°
2026-04-28 15:18 36.93897 -5.18118 26441 ft 477 kts 58°
2026-04-28 15:18 36.95708 -5.14623 26681 ft 482 kts 58°
2026-04-28 15:18 36.97531 -5.11112 26911 ft 486 kts 58°
2026-04-28 15:19 36.99353 -5.07524 27689 ft 472 kts 60°
2026-04-28 15:19 37.00930 -5.04267 30409 ft 403 kts 61°
2026-04-28 15:19 37.01816 -5.02396 32059 ft 373 kts 62°
2026-04-28 15:19 37.02531 -5.00827 33068 ft 351 kts 62°
2026-04-28 15:20 37.03701 -4.98200 33648 ft 348 kts 62°
2026-04-28 15:20 37.06711 -4.93333 33680 ft 363 kts 35°
2026-04-28 15:20 37.08948 -4.91845 33832 ft 365 kts 19°
2026-04-28 15:21 37.11332 -4.90825 34105 ft 366 kts 18°
2026-04-28 15:21 37.13695 -4.89678 34374 ft 366 kts 22°
2026-04-28 15:21 37.16059 -4.88422 34632 ft 367 kts 22°
2026-04-28 15:21 37.18430 -4.87172 34736 ft 373 kts 22°
2026-04-28 15:22 37.20829 -4.85911 34859 ft 378 kts 22°
2026-04-28 15:22 37.23287 -4.84622 35012 ft 383 kts 22°
2026-04-28 15:22 37.25769 -4.83324 35025 ft 392 kts 22°
2026-04-28 15:23 37.30906 -4.80658 35211 ft 405 kts 21°
2026-04-28 15:23 37.36217 -4.77927 35366 ft 419 kts 22°
2026-04-28 15:24 37.41664 -4.75101 35519 ft 433 kts 22°
2026-04-28 15:24 37.47318 -4.72152 35673 ft 446 kts 22°
2026-04-28 15:25 37.53119 -4.69118 35826 ft 457 kts 22°
2026-04-28 15:25 37.59060 -4.66004 35978 ft 466 kts 22°
2026-04-28 15:25 37.62068 -4.64424 36097 ft 469 kts 22°
2026-04-28 15:26 37.65040 -4.62861 36361 ft 468 kts 22°
2026-04-28 15:26 37.68053 -4.61275 36638 ft 467 kts 22°
2026-04-28 15:26 37.71049 -4.59697 36879 ft 467 kts 22°
2026-04-28 15:26 37.74052 -4.58113 37113 ft 467 kts 22°
2026-04-28 15:27 37.77043 -4.56533 37346 ft 466 kts 22°
2026-04-28 15:27 37.80024 -4.54906 37578 ft 466 kts 27°
2026-04-28 15:27 37.82768 -4.52727 37770 ft 467 kts 38°
2026-04-28 15:27 37.85111 -4.49890 37825 ft 466 kts 51°
2026-04-28 15:28 37.86910 -4.46492 37840 ft 464 kts 63°
2026-04-28 15:28 37.90256 -4.39535 37842 ft 463 kts 62°
2026-04-28 15:29 37.92820 -4.32081 37846 ft 461 kts 69°
2026-04-28 15:29 37.95237 -4.24599 37845 ft 461 kts 69°
2026-04-28 15:30 37.97680 -4.17067 37845 ft 461 kts 69°
2026-04-28 15:30 38.00127 -4.09541 37845 ft 461 kts 68°
2026-04-28 15:31 38.02561 -4.02067 37845 ft 461 kts 68°
2026-04-28 15:31 38.05010 -3.94549 37845 ft 461 kts 68°
2026-04-28 15:32 38.07463 -3.87018 37845 ft 461 kts 68°
2026-04-28 15:32 38.09913 -3.79488 37846 ft 461 kts 69°
2026-04-28 15:33 38.12361 -3.71954 37849 ft 461 kts 69°
2026-04-28 15:33 38.14791 -3.64464 37851 ft 462 kts 69°
2026-04-28 15:34 38.16528 -3.56631 37853 ft 460 kts 79°
2026-04-28 15:34 38.17857 -3.48660 37853 ft 460 kts 79°
2026-04-28 15:35 38.19178 -3.40724 37853 ft 460 kts 79°
2026-04-28 15:35 38.21164 -3.28763 37852 ft 461 kts 79°
2026-04-28 15:36 38.22486 -3.20775 37854 ft 461 kts 79°
2026-04-28 15:36 38.23804 -3.12786 37854 ft 461 kts 79°
2026-04-28 15:37 38.25113 -3.04826 37854 ft 461 kts 79°
2026-04-28 15:37 38.26424 -2.96825 37858 ft 462 kts 79°
2026-04-28 15:38 38.27727 -2.88843 37862 ft 462 kts 79°
2026-04-28 15:38 38.29030 -2.80830 37866 ft 462 kts 80°
2026-04-28 15:39 38.30328 -2.72816 37870 ft 462 kts 80°
2026-04-28 15:39 38.31614 -2.64833 37875 ft 462 kts 80°
2026-04-28 15:40 38.32903 -2.56803 37880 ft 463 kts 80°
2026-04-28 15:40 38.34189 -2.48757 37884 ft 463 kts 80°
2026-04-28 15:41 38.35514 -2.40738 37888 ft 463 kts 76°
2026-04-28 15:41 38.38070 -2.33195 37894 ft 467 kts 59°
2026-04-28 15:42 38.41920 -2.26549 37923 ft 469 kts 53°
2026-04-28 15:42 38.45879 -2.19980 37929 ft 469 kts 53°
2026-04-28 15:43 38.49874 -2.13384 37933 ft 469 kts 53°
2026-04-28 15:43 38.53873 -2.06793 37936 ft 469 kts 53°
2026-04-28 15:44 38.57868 -2.00210 37939 ft 469 kts 53°
2026-04-28 15:44 38.61849 -1.93662 37942 ft 469 kts 53°
2026-04-28 15:45 38.65865 -1.87063 37945 ft 469 kts 53°
2026-04-28 15:45 38.69879 -1.80469 37948 ft 469 kts 53°
2026-04-28 15:46 38.73864 -1.73898 37953 ft 470 kts 53°
2026-04-28 15:46 38.77876 -1.67260 37954 ft 470 kts 53°
2026-04-28 15:47 38.81878 -1.60639 37955 ft 470 kts 53°
2026-04-28 15:47 38.85883 -1.54010 37955 ft 470 kts 53°
2026-04-28 15:48 38.89862 -1.47421 37955 ft 470 kts 53°
2026-04-28 15:48 38.93867 -1.40782 37956 ft 470 kts 53°
2026-04-28 15:49 38.97877 -1.34127 37957 ft 470 kts 53°
2026-04-28 15:49 39.01851 -1.27522 37959 ft 470 kts 53°
2026-04-28 15:50 39.05836 -1.20834 37960 ft 470 kts 53°
2026-04-28 15:50 39.09786 -1.14192 37962 ft 470 kts 53°
2026-04-28 15:51 39.13772 -1.07489 37963 ft 470 kts 53°
2026-04-28 15:51 39.17759 -1.00783 37963 ft 471 kts 53°
2026-04-28 15:52 39.21755 -0.94058 37963 ft 471 kts 53°
2026-04-28 15:52 39.25727 -0.87366 37963 ft 472 kts 53°
2026-04-28 15:53 39.29714 -0.80599 37963 ft 472 kts 53°
2026-04-28 15:53 39.33689 -0.73836 37963 ft 473 kts 53°
2026-04-28 15:54 39.37650 -0.67097 37963 ft 473 kts 53°
2026-04-28 15:54 39.41642 -0.60301 37959 ft 474 kts 53°
2026-04-28 15:55 39.45632 -0.53503 37961 ft 474 kts 53°
2026-04-28 15:55 39.49719 -0.46877 37962 ft 474 kts 47°
2026-04-28 15:56 39.54246 -0.40650 37962 ft 474 kts 47°
2026-04-28 15:56 39.58782 -0.34433 37961 ft 474 kts 47°
2026-04-28 15:57 39.63321 -0.28214 37960 ft 474 kts 47°
2026-04-28 15:57 39.67871 -0.21980 37958 ft 474 kts 47°
2026-04-28 15:58 39.72388 -0.15788 37956 ft 475 kts 47°
2026-04-28 15:58 39.76939 -0.09544 37954 ft 475 kts 47°
2026-04-28 15:59 39.80714 -0.04358 37952 ft 475 kts 47°
2026-04-28 15:59 39.85987 0.02940 37915 ft 478 kts 47°
2026-04-28 16:00 39.90537 0.09287 37889 ft 478 kts 47°
2026-04-28 16:00 39.95053 0.15584 37885 ft 478 kts 47°
2026-04-28 16:01 39.99605 0.21934 37885 ft 478 kts 47°
2026-04-28 16:01 40.04125 0.28259 37888 ft 478 kts 47°
2026-04-28 16:02 40.08665 0.34619 37893 ft 478 kts 47°
2026-04-28 16:02 40.13205 0.40981 37899 ft 479 kts 47°
2026-04-28 16:03 40.17754 0.47364 37905 ft 479 kts 46°
2026-04-28 16:03 40.22296 0.53744 37914 ft 479 kts 46°
2026-04-28 16:04 40.26811 0.60101 37921 ft 479 kts 46°
2026-04-28 16:04 40.30602 0.65476 37925 ft 479 kts 46°
2026-04-28 16:05 40.35860 0.72934 37931 ft 479 kts 46°
2026-04-28 16:05 40.40395 0.79370 37936 ft 479 kts 46°
2026-04-28 16:06 40.44914 0.85795 37954 ft 479 kts 46°
2026-04-28 16:06 40.49415 0.92198 37966 ft 479 kts 46°
2026-04-28 16:07 40.53936 0.98637 37971 ft 479 kts 46°
2026-04-28 16:08 40.60657 1.08303 37978 ft 479 kts 46°
2026-04-28 16:08 40.65156 1.14785 37981 ft 479 kts 46°
2026-04-28 16:09 40.71128 1.23403 37991 ft 478 kts 46°
2026-04-28 16:10 40.78585 1.34198 37993 ft 478 kts 46°
2026-04-28 16:10 40.84558 1.42851 37993 ft 478 kts 46°
2026-04-28 16:11 40.93500 1.55880 37993 ft 478 kts 46°
2026-04-28 16:12 41.00210 1.65680 37993 ft 478 kts 46°
2026-04-28 16:13 41.06889 1.75461 37993 ft 478 kts 46°
2026-04-28 16:14 41.15800 1.88584 37989 ft 478 kts 46°
2026-04-28 16:15 41.24691 2.01699 37989 ft 478 kts 46°
2026-04-28 16:15 41.29145 2.08282 37989 ft 478 kts 46°
2026-04-28 16:16 41.32984 2.15501 37988 ft 481 kts 63°
2026-04-28 16:16 41.34407 2.19566 37988 ft 482 kts 64°
2026-04-28 16:17 41.38574 2.31671 37981 ft 482 kts 64°
2026-04-28 16:17 41.41361 2.39811 37979 ft 482 kts 65°
2026-04-28 16:18 41.44139 2.47954 37975 ft 482 kts 65°
2026-04-28 16:18 41.46891 2.56046 37973 ft 482 kts 65°
2026-04-28 16:19 41.49650 2.64187 37972 ft 482 kts 65°
2026-04-28 16:19 41.52409 2.72353 37971 ft 482 kts 65°
2026-04-28 16:20 41.55169 2.80547 37971 ft 482 kts 65°
2026-04-28 16:20 41.57900 2.88679 37973 ft 483 kts 65°
2026-04-28 16:21 41.60646 2.96880 37978 ft 483 kts 65°
2026-04-28 16:21 41.63388 3.05093 37979 ft 483 kts 65°
2026-04-28 16:22 41.66118 3.13295 37980 ft 483 kts 65°
2026-04-28 16:22 41.68828 3.21481 37983 ft 483 kts 65°
2026-04-28 16:23 41.71538 3.29715 37987 ft 484 kts 65°
2026-04-28 16:23 41.74260 3.37968 37990 ft 484 kts 65°
2026-04-28 16:24 41.76982 3.46229 37993 ft 484 kts 65°
2026-04-28 16:24 41.79693 3.54440 37998 ft 485 kts 65°
2026-04-28 16:25 41.82434 3.62735 38003 ft 485 kts 65°
2026-04-28 16:25 41.85154 3.70972 38008 ft 486 kts 65°
2026-04-28 16:26 41.87892 3.79271 38013 ft 486 kts 64°
2026-04-28 16:26 41.90633 3.87590 38017 ft 487 kts 64°
2026-04-28 16:27 41.93357 3.95919 38021 ft 486 kts 65°
2026-04-28 16:28 41.97386 4.08381 38022 ft 486 kts 65°
2026-04-28 16:28 42.00086 4.16723 38021 ft 486 kts 65°
2026-04-28 16:29 42.04123 4.29204 38021 ft 486 kts 65°
2026-04-28 16:30 42.08809 4.41224 38021 ft 481 kts 49°
2026-04-28 16:30 42.13473 4.47596 38024 ft 476 kts 39°
2026-04-28 16:31 42.18342 4.53567 38022 ft 476 kts 39°
2026-04-28 16:31 42.23258 4.59568 38022 ft 476 kts 39°
2026-04-28 16:32 42.28176 4.65558 38022 ft 475 kts 39°
2026-04-28 16:32 42.35557 4.74539 38022 ft 475 kts 38°
2026-04-28 16:33 42.39643 4.79510 38022 ft 475 kts 38°
2026-04-28 16:33 42.45356 4.86466 38022 ft 475 kts 38°
2026-04-28 16:34 42.50298 4.92488 38022 ft 474 kts 39°
2026-04-28 16:34 42.55199 4.98470 38022 ft 474 kts 39°
2026-04-28 16:35 42.59320 5.05423 38025 ft 480 kts 54°
2026-04-28 16:35 42.62953 5.13021 38022 ft 480 kts 54°
2026-04-28 16:36 42.66580 5.20645 38022 ft 480 kts 54°
2026-04-28 16:36 42.70199 5.28274 38022 ft 480 kts 54°
2026-04-28 16:37 42.73803 5.35902 38022 ft 480 kts 55°
2026-04-28 16:38 42.79203 5.47383 38022 ft 480 kts 55°
2026-04-28 16:38 42.82794 5.55046 38022 ft 480 kts 55°
2026-04-28 16:39 42.86380 5.62721 38022 ft 480 kts 55°
2026-04-28 16:39 42.89935 5.70350 38022 ft 480 kts 55°
2026-04-28 16:40 42.93508 5.78039 38022 ft 480 kts 55°
2026-04-28 16:40 42.97079 5.85743 38021 ft 480 kts 55°
2026-04-28 16:41 43.00645 5.93460 38021 ft 480 kts 55°
2026-04-28 16:41 43.04209 6.01189 38021 ft 480 kts 56°
2026-04-28 16:42 43.07764 6.08922 38020 ft 480 kts 56°
2026-04-28 16:42 43.11287 6.16605 38020 ft 480 kts 56°
2026-04-28 16:43 43.14833 6.24359 38019 ft 480 kts 56°
2026-04-28 16:43 43.18368 6.32110 38015 ft 480 kts 56°
2026-04-28 16:44 43.21906 6.39885 38008 ft 481 kts 56°
2026-04-28 16:44 43.25417 6.47625 38001 ft 481 kts 56°
2026-04-28 16:45 43.28954 6.55441 37999 ft 482 kts 56°
2026-04-28 16:45 43.32494 6.63287 37999 ft 482 kts 56°
2026-04-28 16:46 43.36012 6.71103 38000 ft 483 kts 56°
2026-04-28 16:46 43.39549 6.78985 38001 ft 483 kts 56°
2026-04-28 16:47 43.43072 6.86855 38004 ft 482 kts 56°
2026-04-28 16:47 43.46579 6.94713 38009 ft 481 kts 56°
2026-04-28 16:48 43.50057 7.02525 38012 ft 480 kts 56°
2026-04-28 16:48 43.53542 7.10372 38011 ft 480 kts 56°
2026-04-28 16:49 43.57031 7.18254 38005 ft 479 kts 56°
2026-04-28 16:49 43.60478 7.26059 38000 ft 479 kts 56°
2026-04-28 16:50 43.63952 7.33948 37999 ft 479 kts 56°
2026-04-28 16:50 43.67404 7.41808 37999 ft 479 kts 56°
2026-04-28 16:51 43.70835 7.49641 38002 ft 479 kts 57°
2026-04-28 16:51 43.74281 7.57529 38039 ft 479 kts 56°
2026-04-28 16:52 43.77728 7.65442 38043 ft 479 kts 57°
2026-04-28 16:52 43.81160 7.73343 38044 ft 479 kts 57°
2026-04-28 16:53 43.84701 7.81166 38044 ft 479 kts 55°
2026-04-28 16:53 43.88297 7.88938 38045 ft 479 kts 55°
2026-04-28 16:54 43.91874 7.96665 38045 ft 479 kts 55°
2026-04-28 16:54 43.95476 8.04450 37835 ft 479 kts 55°
2026-04-28 16:54 43.96666 8.07022 37669 ft 478 kts 55°
2026-04-28 16:55 43.99073 8.12231 37333 ft 476 kts 55°
2026-04-28 16:55 44.00838 8.16054 37087 ft 476 kts 55°
2026-04-28 16:55 44.02632 8.19941 36831 ft 477 kts 55°
2026-04-28 16:55 44.04416 8.23810 35967 ft 478 kts 55°
2026-04-28 16:56 44.06220 8.27724 35044 ft 480 kts 55°
2026-04-28 16:56 44.08024 8.31643 34101 ft 482 kts 56°
2026-04-28 16:56 44.09834 8.35578 33116 ft 482 kts 56°
2026-04-28 16:56 44.11034 8.38191 32418 ft 483 kts 56°
2026-04-28 16:57 44.12846 8.42141 31317 ft 485 kts 56°
2026-04-28 16:57 44.14663 8.46104 30191 ft 486 kts 56°
2026-04-28 16:57 44.17071 8.51367 28697 ft 486 kts 56°
2026-04-28 16:57 44.18883 8.55331 27571 ft 485 kts 56°
2026-04-28 16:58 44.20106 8.58012 26809 ft 484 kts 56°
2026-04-28 16:58 44.21886 8.61916 25696 ft 482 kts 56°
2026-04-28 16:58 44.23679 8.65851 24569 ft 480 kts 56°
2026-04-28 16:58 44.25462 8.69770 23452 ft 477 kts 56°
2026-04-28 16:59 44.27231 8.73663 22562 ft 470 kts 56°
2026-04-28 16:59 44.28961 8.77474 21791 ft 460 kts 56°
2026-04-28 16:59 44.30653 8.81209 21065 ft 450 kts 56°
2026-04-28 16:59 44.32308 8.84868 20309 ft 443 kts 57°
2026-04-28 17:00 44.33936 8.88487 19579 ft 434 kts 57°
2026-04-28 17:00 44.35523 8.92033 18894 ft 428 kts 57°
2026-04-28 17:00 44.37076 8.95520 18240 ft 424 kts 57°
2026-04-28 17:00 44.38643 8.99013 17586 ft 420 kts 55°
2026-04-28 17:01 44.40511 9.02097 16935 ft 414 kts 41°
2026-04-28 17:01 44.42838 9.04439 16279 ft 408 kts 27°
2026-04-28 17:01 44.45454 9.05893 15530 ft 402 kts 13°
2026-04-28 17:01 44.48194 9.06372 14770 ft 393 kts 358°
2026-04-28 17:02 44.50901 9.06096 14168 ft 388 kts 352°
2026-04-28 17:02 44.53573 9.05698 13564 ft 385 kts 351°
2026-04-28 17:02 44.56190 9.05272 12971 ft 381 kts 351°
2026-04-28 17:02 44.58811 9.04819 12372 ft 378 kts 350°
2026-04-28 17:03 44.63975 9.03878 11180 ft 371 kts 350°
2026-04-28 17:03 44.66520 9.03398 10691 ft 361 kts 349°
2026-04-28 17:03 44.68953 9.02934 10543 ft 342 kts 349°
2026-04-28 17:04 44.73421 9.02016 10387 ft 307 kts 348°
2026-04-28 17:04 44.75482 9.01577 10310 ft 292 kts 348°
2026-04-28 17:05 44.77689 9.01102 10222 ft 278 kts 348°
2026-04-28 17:05 44.79422 9.00727 10153 ft 276 kts 348°
2026-04-28 17:05 44.81378 9.00301 10074 ft 287 kts 349°
2026-04-28 17:06 44.85352 8.99437 9534 ft 288 kts 349°
2026-04-28 17:06 44.87301 8.99014 9211 ft 286 kts 349°
2026-04-28 17:06 44.91229 8.98160 8553 ft 285 kts 350°
2026-04-28 17:07 44.93190 8.97733 8219 ft 284 kts 350°
2026-04-28 17:07 44.95152 8.97450 7875 ft 284 kts
2026-04-28 17:07 44.97070 8.98117 7361 ft 288 kts 25°
2026-04-28 17:07 44.98689 8.99744 6993 ft 284 kts 40°
2026-04-28 17:08 45.00180 9.01593 6580 ft 283 kts 42°
2026-04-28 17:08 45.01647 9.03427 6179 ft 282 kts 42°
2026-04-28 17:08 45.03114 9.05260 5802 ft 279 kts 42°
2026-04-28 17:08 45.04544 9.07047 5459 ft 276 kts 42°
2026-04-28 17:09 45.05981 9.08840 5098 ft 273 kts 43°
2026-04-28 17:09 45.07382 9.10589 4924 ft 264 kts 43°
2026-04-28 17:09 45.08745 9.12292 4728 ft 257 kts 42°
2026-04-28 17:09 45.10058 9.13932 4602 ft 247 kts 42°
2026-04-28 17:10 45.11325 9.15515 4497 ft 238 kts 42°
2026-04-28 17:10 45.12554 9.17052 4397 ft 238 kts 42°
2026-04-28 17:10 45.13791 9.18599 4298 ft 239 kts 42°
2026-04-28 17:10 45.15035 9.20156 4198 ft 239 kts 42°
2026-04-28 17:11 45.16279 9.21714 4098 ft 239 kts 42°
2026-04-28 17:11 45.17524 9.23274 3998 ft 238 kts 42°
2026-04-28 17:11 45.18761 9.24824 3898 ft 237 kts 42°
2026-04-28 17:11 45.19999 9.26377 3797 ft 237 kts 42°
2026-04-28 17:12 45.21215 9.27902 3695 ft 229 kts 42°
2026-04-28 17:12 45.22506 9.29143 3578 ft 222 kts 23°
2026-04-28 17:12 45.23975 9.29626 3478 ft 213 kts
2026-04-28 17:12 45.25435 9.29682 3374 ft 206 kts 358°
2026-04-28 17:13 45.26829 9.29589 3267 ft 199 kts 355°
2026-04-28 17:13 45.28209 9.29453 3167 ft 200 kts 355°
2026-04-28 17:13 45.29588 9.29308 3023 ft 198 kts 354°
2026-04-28 17:13 45.30972 9.29160 2780 ft 200 kts 354°
2026-04-28 17:14 45.32365 9.29010 2528 ft 202 kts 354°
2026-04-28 17:14 45.33752 9.28861 2284 ft 197 kts 355°
2026-04-28 17:14 45.35069 9.28721 2035 ft 179 kts 355°
2026-04-28 17:14 45.36224 9.28605 1793 ft 157 kts 355°
2026-04-28 17:15 45.37255 9.28490 1569 ft 141 kts 355°
2026-04-28 17:15 45.38222 9.28383 1382 ft 138 kts 355°
2026-04-28 17:15 45.39179 9.28283 1215 ft 136 kts 355°
2026-04-28 17:15 45.40128 9.28179 1048 ft 143 kts 356°
2026-04-28 17:16 45.41179 9.28067 874 ft 155 kts 355°
2026-04-28 17:16 45.42222 9.27961 637 ft 145 kts 356°
2026-04-28 17:16 45.43212 9.27850 445 ft 141 kts 355°
2026-04-28 17:16 45.44121 9.27748 368 ft 111 kts 355°
2026-04-28 17:17 45.44726 9.27683 368 ft 69 kts 355°
2026-04-28 17:17 45.45124 9.27638 368 ft 39 kts 355°
2026-04-28 17:17 45.45300 9.27657 368 ft 20 kts 26°
2026-04-28 17:17 45.45395 9.27726 368 ft 13 kts 28°
2026-04-28 17:18 45.45461 9.27807 368 ft 12 kts 32°
2026-04-28 17:18 45.45554 9.27818 368 ft 17 kts
2026-04-28 17:18 45.45709 9.27819 368 ft 25 kts
2026-04-28 17:18 45.45864 9.27821 368 ft 18 kts
2026-04-28 17:19 45.45943 9.27753 368 ft 13 kts 311°
2026-04-28 17:19 45.45998 9.27649 368 ft 13 kts 290°
2026-04-28 17:19 45.46015 9.27522 368 ft 14 kts 270°
2026-04-28 17:19 45.46016 9.27353 368 ft 20 kts 271°
2026-04-28 17:20 45.46034 9.27131 368 ft 25 kts 283°
2026-04-28 17:20 45.46058 9.26969 368 ft 25 kts 279°
2026-04-28 17:20 45.46066 9.26646 368 ft 24 kts 270°
2026-04-28 17:20 45.46063 9.26446 368 ft 14 kts 254°
2026-04-28 17:21 45.46010 9.26338 368 ft 13 kts 230°
2026-04-28 17:21 45.45937 9.26238 368 ft 16 kts 220°
2026-04-28 17:21 45.45842 9.26159 368 ft 16 kts 195°
2026-04-28 17:22 45.45623 9.26162 368 ft 15 kts 177°
2026-04-28 17:22 45.45531 9.26213 368 ft 14 kts 148°
2026-04-28 17:22 45.45472 9.26257 368 ft 4 kts 198°
2026-04-28 17:23 45.45447 9.26205 368 ft 2 kts 246°
2026-04-28 17:23 45.45441 9.26183 368 ft 2 kts 246°
2026-04-28 17:23 45.45440 9.26180 368 ft 0 kts 246°